Location: Unspecified
(0.0000°N, 0.0000°E)
Time: 12:12:18
(UTC+00:00)

Tiros 1 despin weight - Visible Passes

Search period start: 24 April 2025 00:00
Search period end: 04 May 2025 00:00
Orbit: 564 x 603 km, 48.2° (Epoch: 23 April)

Date Brightness Start Highest point End Pass type
(mag) Time Alt. Az. Time Alt. Az. Time Alt. Az.
26 Apr ? 20:05:27 10° NNW 20:06:07 14° NNW 20:06:07 14° NNW visible
27 Apr ? 20:10:21 10° NW 20:11:40 20° NW 20:11:40 20° NW visible
28 Apr ? 18:36:50 10° NNE 18:39:05 14° NE 18:40:55 11° ENE visible
28 Apr ? 20:15:46 10° WNW 20:17:17 20° WNW 20:17:17 20° WNW visible
29 Apr ? 18:40:31 10° N 18:44:12 28° NE 18:46:34 17° E visible
29 Apr ? 20:21:54 10° W 20:22:57 14° W 20:22:57 14° W visible
30 Apr ? 18:45:05 10° NNW 18:49:17 63° NE 18:52:15 18° SE visible
01 May ? 18:50:10 10° NW 18:54:20 57° SW 18:57:57 13° SSE visible
02 May ? 05:13:49 10° SSE 05:16:13 14° SE 05:18:38 10° E visible
02 May ? 18:55:49 10° WNW 18:59:24 26° SW 19:02:59 10° S visible
03 May ? 05:17:29 10° S 05:21:19 28° SE 05:25:09 10° ENE visible
03 May ? 19:02:31 10° WSW 19:04:29 13° SW 19:06:28 10° SSW visible
